STARLINK-4743 (53787 NORAD) Tracking and Keplerian Element Data

This shows tracking and keplerian element data for the satellite.

Feedback or suggestion? Click here.




ElementValue
Catalog53787
NameSTARLINK-4743
Epoch Orbit1106
Epoch Day325.33334491
Epoch Year2022
RAAN280.5269
Inclination53.217
Eccentricity0.0001453
Argument of Perigee55.4519
Mean Anonmoly225.4401
Mean Motion15.10892975
Decay Rate-0.01142871
L11 53787U 22111Q 22325.33334491 -.01142871 00000+0 -73682-1 0 9993
L22 53787 53.2170 280.5269 0001453 55.4519 225.4401 15.10892975 11067



Live tracking and technical data element details for STARLINK-4743 (NORAD 53787). STARLINK-4743 can be tracked NOW for your location showing map with azimuth and elevation plus other details from your city location.







IsCatalogInMostPopularTable: catalog: 53787, numindb: -1

Insert: records affected: 1


GetName: 53787 STARLINK-4743

Hit Count: inserted at: Thu, 08 Dec 2022 09:41:49 GMT